Regional Weather Roundup
Issued by NWS

Home | Current Version | Previous Version | Graphics & Text | Print | Product List | Glossary On
Versions: 1 2 3 4 5 6 7 8 9 10 11 12 13 14 15 16 17 18 19 20 21 22 23 24 25 26 27 28 29 30 31 32 33 34 35 36 37 38 39 40 41 42 43 44 45 46 47 48 49 50
000
ASUS45 KSLC 300410
RWRUT

UTAH REGIONAL WEATHER ROUNDUP
NATIONAL WEATHER SERVICE SALT LAKE CITY UT
900 PM MST THU JAN 29 2015

UTZ001>011-023>025-300500-

NORTHERN UTAH

CITY           SKY/WX    TMP DP  RH WIND       PRES   REMARKS
BRIGHAM CITY   CLOUDY    38  32  78 W5        30.25S WCI  35
HILL AFB       CLOUDY    40  34  79 SE8       30.24S WCI  34
LOGAN          CLEAR     34  32  92 CALM      30.27F
OGDEN          CLOUDY    38  35  89 SW7       30.24S WCI  33
PROVO AIRPORT  CLOUDY    37  34  87 CALM      30.26S
SALT LAKE CITY CLOUDY    38  34  85 S3        30.27R
VERNAL         CLOUDY    37  29  72 N3        30.29F
WENDOVER       CLOUDY    41  32  70 CALM      30.27S
HEBER CITY     CLOUDY    34  30  86 CALM      30.26S
WEST JORDAN    CLOUDY    39  36  87 CALM      30.27R

$$

UTZ012>022-026-027-300500-

SOUTHERN/CENTRAL UTAH

CITY           SKY/WX    TMP DP  RH WIND       PRES   REMARKS
BLANDING       CLOUDY    46  31  54 NE7       30.35S
BRYCE CANYON   CLOUDY    34  29  82 CALM      30.27S
CEDAR CITY     CLOUDY    39  33  79 W3        30.21F
DELTA          CLOUDY    40  38  95 N3        30.27R
HANKSVILLE     CLOUDY    45  32  61 W6        30.29S
MILFORD        CLOUDY    41  36  82 N12       30.23S
MOAB/CYNLANDS  CLOUDY    44  36  73 NW5       30.25F
PRICE          CLOUDY    40  35  83 CALM      30.30S
ST GEORGE      CLOUDY    54  39  58 SE12      30.16R

$$

REGIONAL REPORTS     COLORADO/ARIZONA

CITY           SKY/WX    TMP DP  RH WIND       PRES   REMARKS
CRAIG, CO      CLOUDY    29  26  89 CALM      30.31S
GRAND JUNCTION CLOUDY    43  31  62 CALM      30.28S
RIFLE          CLOUDY    38  27  64 CALM      30.29S
MONTROSE       CLOUDY    40  28  62 SE5       30.32S
CORTEZ         CLOUDY    46  32  58 MISG      30.30S
PAGE, AZ       NOT AVBL
GRAND CANYON   LGT RAIN  39  36  89 E6        30.21F WCI  35
KINGMAN        LGT RAIN  52  44  74 E9        30.10S
FLAGSTAFF      LGT RAIN  39  37  92 E8        30.21F WCI  33

$$

REGIONAL REPORTS    NEVADA/IDAHO/WYOMING

CITY           SKY/WX    TMP DP  RH WIND       PRES   REMARKS
LAS VEGAS, NV  MOCLDY    59  39  47 S7        30.03F
ELY            LGT RAIN  35  34  96 CALM      30.25S
ELKO           CLOUDY    40  33  76 E6        30.22S
POCATELLO, ID  CLEAR     31  30  96 N7        30.29F WCI  24
BURLEY         MOCLDY    37  30  75 E8        30.27S WCI  31
EVANSTON, WY   MOCLDY    32  27  81 N7        30.29F WCI  26
ROCK SPRINGS   CLOUDY    32  27  81 E5        30.29F WCI  27
KEMMERER       CLOUDY    28  25  86 N10       30.30F WCI  19

$$


USA.gov is the U.S. government's official web portal to all federal, state and local government web resources and services.